2022 RM
ephemeris date magn radius delta ra dec elong phase
Today15 Oct 202529.82.112 AU3.082 AU12h41m-02°47'11.0°5.2°
2022 RM - 2025-10-15
astro.vanbuitenen.nl


 
-1 year
-1 month
-1 day
Now
+1 day
+1 month
+1 year

The interactive orbit chart above shows the body's path through the solar system and its position at the given date. Green and blue lines are shown perpendicular to the ecliptic plane: Green if the path is above the ecliptic plane, blue if it is below. (Left-click and drag to rotate the view; Right-click and drag to move the view; Use scroll wheel to zoom in our out.)

The orbital elements of 2022 RM are:

            e (Eccentricity)                : 0.4957645
            a (Semimajor axis)              : 1.7881475
            i (Inclination)                 : 3.41748
            Ω (Longitude of ascending node) : 144.61650
            ω (Argument of perihelion)      : 264.15065
            M (Mean anomaly)                : 17.76531
            Epoch                           : 2025 May 05

            L (Longitude of perihelion)     : 228.75680
            B (Latitude of perihelion)      : -3.39967
            P (Orbital period in years)     : 2.39            
        

The light curve chart below shows the estimated development of the minor planet's magnitude.


The all-sky chart below shows the path of the minor planet over the same period as the light curve. The current position is marked yellow.





The following chart shows the path of the minor planet in the next few days. The field of view is optimized for (~10x50) binoculars and finderscopes. A more printer-friendly version of the same chart can be found below.




Ephemerides:
Date       Time       RA (2000)    DEC (2000)    delta   radius  elong  phase   PA    magn
2025-10-15 00:00 UT   12 41 29.2   -02 47 47     3.082    2.112   11.0    5.2   301   29.8 
2025-10-15 06:13 UT   12 41 57.0   -02 50 33     3.082    2.113   11.1    5.2   301   29.8 
2025-10-16 00:00 UT   12 43 16.3   -02 58 28     3.084    2.117   11.5    5.4   301   29.8 
2025-10-17 00:00 UT   12 45 03.1   -03 09 06     3.086    2.122   12.0    5.6   300   29.9 
2025-10-18 00:00 UT   12 46 49.6   -03 19 40     3.088    2.127   12.5    5.8   300   29.9 
2025-10-19 00:00 UT   12 48 35.7   -03 30 11     3.090    2.132   13.1    6.1   300   29.9 
2025-10-20 00:00 UT   12 50 21.5   -03 40 38     3.092    2.136   13.6    6.3   299   29.9 
2025-10-21 00:00 UT   12 52 07.1   -03 51 02     3.093    2.141   14.1    6.5   299   29.9 
2025-10-22 00:00 UT   12 53 52.3   -04 01 23     3.094    2.146   14.6    6.7   299   29.9 
2025-10-23 00:00 UT   12 55 37.2   -04 11 40     3.096    2.151   15.1    6.9   299   30.0 
2025-10-24 00:00 UT   12 57 21.8   -04 21 53     3.097    2.156   15.7    7.2   298   30.0 
2025-10-25 00:00 UT   12 59 06.0   -04 32 02     3.098    2.161   16.2    7.4   298   30.0 
2025-10-26 00:00 UT   13 00 50.0   -04 42 08     3.099    2.165   16.7    7.6   298   30.0 
2025-10-27 00:00 UT   13 02 33.7   -04 52 10     3.099    2.170   17.3    7.8   298   30.0 
2025-10-28 00:00 UT   13 04 17.0   -05 02 09     3.100    2.175   17.8    8.0   298   30.0 
2025-10-29 00:00 UT   13 06 00.1   -05 12 03     3.100    2.180   18.3    8.2   297   30.0 
2025-10-30 00:00 UT   13 07 42.8   -05 21 54     3.100    2.184   18.9    8.5   297   30.1 
2025-10-31 00:00 UT   13 09 25.2   -05 31 41     3.100    2.189   19.4    8.7   297   30.1 
2025-11-01 00:00 UT   13 11 07.4   -05 41 24     3.100    2.194   20.0    8.9   297   30.1 
2025-11-02 00:00 UT   13 12 49.2   -05 51 04     3.100    2.198   20.5    9.1   297   30.1 


    Terminology:
            
    delta:  distance between minor planet and earth in AU
    radius: distance between minor planet and sun in AU
    magn:   magnitude (brightness) estimate    
    ra:     right ascension in hours (24h = 360deg)
    dec:    declination in degrees
    elong:  elongation in degrees (angle sun-earth-minor planet)    
    phase:  phase angle in degrees (angle sun-minor planet-earth)        
    AU:     Astronomical Unit (mean distance between earth and sun: 149597870.7 km
    

Orbital elements provided by the MPC (Minor Planet Center).
Calculations by a modified version of AAPlus, a C# implementation of the AA+ project by PJ Naughter from the algorithms presented in the book "Astronomical Algorithms" by Jean Meeus.
NGC2000 dso catalog and star labels from VizieR as provided by the Strasbourg astronomical Data Center.
Tycho2 catalog from the ESO archive.